Location: Earls Croome
(52.0667°N, 2.2000°W)
Time: 23:18:10
(UTC+00:00)

SL-4 R/B - Pass Details

Date: 17 November 2019
Orbit: 428 x 667 km, 51.6° (Epoch: 08 December)

Event Time Altitude Azimuth Distance (km) Brightness Sun altitude
Exits shadow 03:59:46 33° 99° (E) 1,114 3.9 -32.2°
Drops below altitude 10° 04:02:28 10° 97° (E) 2,092 5.8 -31.8°
Sets 04:04:49 0° 97° (E) 2,998 6.8 -31.4°
